THOR ABLESTAR DEB, 706

Orbit data source: Space-Track

THOR ABLESTAR DEB, 706 is space debris in LEO originally from a launch on Thu, 05 Dec 1963 UTC launched from the Air Force Western Test Range (AFWTR). Debris objects in space refer to the collection of defunct objects orbiting the Earth. Examples of debris include non-operational satellites, rocket bodies, and fragments generated from explosions, collisions, or faulty payload assembly.

Loading next visibility...
Identifier
706, 1963-049D
Orbit
LEO
Country
Flag of USUS
Related business
Manufacturer
Unknown
Mission
Spacecraft
Bus & Motor
Unknown
Mass
Unknown
Launch date (UTC)
1963-12-05 (63 years ago)
Launch vehicle
Unknown
Launch site
Air Force Western Test Range (AFWTR)
Object type
Payload
Rocket body
Debris
Shape & HBR
Unknown shape, 0.1 m
Radar Cross Section
Medium (>0.1 m² and <1 m²)

Expand to show TLE details & history
Last TLE update: 21 hours ago

TLE from 21 hours ago
0 THOR ABLESTAR DEB
1   706U 63049D   26197.44129976  .00000119  00000-0  15497-3 0  9992
2   706  89.9155  72.7956 0026287 339.0549 200.1373 13.56630652 87273
Epoch: 2026-07-16T10:35Z
TLE epoch observation values (Epoch: 2026-07-16T10:35:28.299Z)
Latitude
0.80065°
Longitude
159.6438°
Altitude
1,069.163 km
Speed
7.308 km/s
True Right ascension
16h 51m 10s
True Declination
0° 47' 46"
Sunlit
Object was in full shadow at epoch
Visualization orbit readout
Latitude
Unknown
Longitude
Unknown
Altitude
Unknown
Speed
Unknown
Apparent Right ascension
Unknown
Apparent Declination
Unknown
Sunlit
N/A
Visualization observer readout
Local Sidereal Time
20:16:24
Azimuth
Unknown
Elevation
Unknown
Doppler factor
Unknown
Orbital elements
Apogee altitude
1,064.516 km
Perigee altitude
1,025.489 km
Semi-major axis
7,423.14 km
Eccentricity
0.00263
Inclination
89.9155°
RAAN
72.7956°
Arg. of periapsis
339.0549°
True anomaly
200.03392°
Mean anomaly
200.1373°
Eccentric anomaly
200.08558°
Mean motion
3.39361 °/min
Orbital period
106.08 mins
BSTAR
0.00015497
Loading maneuver chart data...
Computing Atmospheric mass density...
Loading historical data...
Loading historical data...
Loading historical data...
Loading historical data...
Loading historical data...
Loading historical data...
Loading historical data...

Documentation

Showing up to 5 results
|